This is the latest recevied weather packets stored in our database for station/object DG8SF-13. If no packets are shown the sender has not sent any weather packets the latest 1 day(s).
| Time | Temp. | Humidity | Pressure | Rain* | Wind** | Luminosity | Snow |
|---|---|---|---|---|---|---|---|
| 1777986654 | 15.56° C | 77% | 1007.4 hPa | 0.51 mm | 0.45 m/s, 225° | - | - |
| 1777986340 | 15.56° C | 77% | 1007.4 hPa | 0.51 mm | 0.45 m/s, 225° | - | - |
| 1777986031 | 15.56° C | 80% | 1007.3 hPa | 0.51 mm | 0.89 m/s, 225° | - | - |
| 1777985715 | 15.56° C | 80% | 1007.4 hPa | 0.51 mm | 0.89 m/s, 225° | - | - |
| 1777985408 | 15.56° C | 82% | 1007.5 hPa | 0.51 mm | 0.89 m/s, 225° | - | - |
| 1777985093 | 16.11° C | 81% | 1007.5 hPa | 0.51 mm | 0.89 m/s, 225° | - | - |
| 1777984783 | 16.11° C | 77% | 1007.4 hPa | 0 mm | 0.89 m/s, 225° | - | - |
| 1777984469 | 16.67° C | 73% | 1007.5 hPa | 0 mm | 0.89 m/s, 225° | - | - |
| 1777984159 | 17.22° C | 71% | 1007.5 hPa | 0 mm | 0.89 m/s, 225° | - | - |
| 1777983847 | 17.78° C | 64% | 1007.3 hPa | 0 mm | 0.89 m/s, 225° | - | - |
| 1777983534 | 17.78° C | 63% | 1007.4 hPa | 0 mm | 0.89 m/s, 248° | - | - |
| 1777983221 | 17.78° C | 64% | 1007.3 hPa | 0 mm | 0.89 m/s, 248° | - | - |
| 1777982912 | 18.33° C | 62% | 1007.2 hPa | 0 mm | 0.89 m/s, 248° | - | - |
| 1777982595 | 18.89° C | 61% | 1007.1 hPa | 0 mm | 0.89 m/s, 112° | - | - |
| 1777982286 | 18.89° C | 63% | 1007.1 hPa | 0 mm | 0.89 m/s, 225° | - | - |
| 1777981974 | 18.89° C | 63% | 1007 hPa | 0 mm | 0.89 m/s, 225° | - | - |
| 1777981663 | 18.89° C | 64% | 1007 hPa | 0 mm | 0.89 m/s, 225° | - | - |
| 1777981359 | 18.89° C | 64% | 1006.9 hPa | 0 mm | 0.45 m/s, 225° | - | - |
| 1777981039 | 18.89° C | 61% | 1006.9 hPa | 0 mm | 0.45 m/s, 202° | - | - |
| 1777980725 | 18.33° C | 61% | 1006.9 hPa | 0 mm | 0.89 m/s, 202° | - | - |
| 1777980416 | 18.89° C | 63% | 1006.9 hPa | 0 mm | 0.89 m/s, 202° | - | - |
| 1777980102 | 18.89° C | 61% | 1006.8 hPa | 0 mm | 0.89 m/s, 202° | - | - |
| 1777979790 | 19.44° C | 59% | 1006.7 hPa | 0 mm | 0.45 m/s, 202° | - | - |
| 1777979477 | 19.44° C | 59% | 1006.9 hPa | 0 mm | 0.45 m/s, 202° | - | - |
| 1777979169 | 19.44° C | 61% | 1006.8 hPa | 0 mm | 0.45 m/s, 202° | - | - |
* Rain latest hour (hover to see other rain measurements)
** Current wind speed in m/s (hover to see current wind gust speed)